Overview Statistics Trail Chart Weather Telemetry Raw packets
 

This is the latest recevied weather packets stored in our database for station/object SQ9SMC-13. If no packets are shown the sender has not sent any weather packets the latest 10 day(s).

<< 35 36 37 38 39 40 41 >>
Time Temp. Humidity Pressure Rain* Wind** Luminosity Snow
1777450205 7.78° C 39% 1028.6 hPa 0 mm - 486 W/m² -
1777449903 7.78° C 38% 1028.8 hPa 0 mm - 477 W/m² -
1777449604 7.78° C 42% 1028.6 hPa 0 mm - 471 W/m² -
1777449304 7.78° C 41% 1028.5 hPa 0 mm - 465 W/m² -
1777449004 7.22° C 41% 1028.5 hPa 0 mm - 281 W/m² -
1777448703 6.67° C 42% 1028.4 hPa 0 mm - 436 W/m² -
1777448404 7.22° C 43% 1028.5 hPa 0 mm - 425 W/m² -
1777448103 6.67° C 45% 1028.5 hPa 0 mm - 416 W/m² -
1777447803 6.67° C 47% 1028.6 hPa 0 mm - 406 W/m² -
1777447504 6.11° C 47% 1028.3 hPa 0 mm - 393 W/m² -
1777447204 6.11° C 47% 1028.3 hPa 0 mm - 386 W/m² -
1777446904 5.56° C 47% 1028.3 hPa 0 mm - 373 W/m² -
1777446602 6.11° C 47% 1028.4 hPa 0 mm - 350 W/m² -
1777446303 6.11° C 46% 1028.3 hPa 0 mm - 204 W/m² -
1777446003 5° C 48% 1028.3 hPa 0 mm - 197 W/m² -
1777445702 5° C 50% 1028.2 hPa 0 mm - 175 W/m² -
1777445403 5° C 50% 1028.3 hPa 0 mm - 253 W/m² -
1777445103 5° C 52% 1028.3 hPa 0 mm - 161 W/m² -
1777444803 4.44° C 55% 1028.2 hPa 0 mm - 165 W/m² -
1777444504 4.44° C 59% 1028 hPa 0 mm - 160 W/m² -
1777444203 4.44° C 57% 1028 hPa 0 mm - 162 W/m² -
1777443903 3.89° C 57% 1028 hPa 0 mm - 138 W/m² -
1777443604 3.89° C 58% 1028 hPa 0 mm - 130 W/m² -
1777443304 5° C 58% 1028 hPa 0 mm - 110 W/m² -
1777443004 5° C 57% 1028 hPa 0 mm - 239 W/m² -

* Rain latest hour (hover to see other rain measurements)
** Current wind speed in m/s (hover to see current wind gust speed)